Regional Weather Roundup
Issued by NWS Sioux Falls, SD

Home | Current Version | Previous Version | Graphics & Text | Print | Product List | Glossary On
Versions: 1 2 3 4 5 6 7 8 9 10 11 12 13 14 15 16 17 18 19 20 21 22 23 24 25 26 27 28 29 30 31 32 33 34 35 36 37 38 39 40 41 42 43 44 45 46 47 48 49 50
000
ASUS43 KFSD 270510
RWRFSD

WEATHER ROUNDUP FOR SE SOUTH DAKOTA/SW MINNESOTA/NW IOWA
NATIONAL WEATHER SERVICE SIOUX FALLS SD
1100 PM CST MON JAN 26 2015

NOTE: "FAIR" INDICATES FEW OR NO CLOUDS BELOW 12,000 FEET WITH NO
SIGNIFICANT WEATHER AND OR OBSTRUCTIONS TO VISIBILITY.


SDZ038>040-050-052>070-270600-
SOUTHEAST SOUTH DAKOTA

CITY           SKY/WX    TMP DP  RH WIND       PRES   REMARKS
CHAMBERLAIN    CLEAR     32  28  86 CALM      30.02R
HURON          PTCLDY    29  27  92 CALM      30.03R
MADISON        FAIR      32  32 100 NW7       30.01R WCI  26
MITCHELL       CLEAR     32  29  88 N3        30.05R
SIOUX FALLS    PTCLDY    31  29  92 NW5       30.02R WCI  26
WINNER         FAIR      40  29  64 S8        30.01S
YANKTON        CLEAR     36  30  80 NW5       30.06R
$$

MNZ071-072-080-081-089-090-097-098-270600-
SOUTHWEST MINNESOTA

CITY           SKY/WX    TMP DP  RH WIND       PRES   REMARKS
FAIRMONT       CLEAR     34  28  80 NW10      29.98R WCI  26
JACKSON        CLEAR     34  32  93 NW9       29.99R WCI  26
LUVERNE        CLEAR     34  32  93 NW6       30.02S WCI  29
MARSHALL       CLEAR     32  28  86 N8        30.03R WCI  25
MONTEVIDEO     CLEAR     30  28  93 N6        30.03R WCI  24
PIPESTONE      CLEAR     34  30  86 NW3       30.00R
REDWOOD FALLS  PTCLDY    32  29  88 N7        30.00R WCI  26
TRACY          CLEAR     33  32  94 NW6       30.01R WCI  28
WINDOM         CLEAR     34  32  93 NW9       29.99R WCI  26
WORTHINGTON    CLEAR     32  28  86 NW8       30.01R WCI  25
$$

IAZ001>003-012>014-020>022-031-032-NEZ013-014-SDZ071-270600-
NORTHWEST IOWA

CITY           SKY/WX    TMP DP  RH WIND       PRES   REMARKS
CHEROKEE       CLEAR     33  32  99 N3        30.03R
DENISON        PTCLDY    37  36  93 N5        30.01R
ESTHERVILLE    CLOUDY    33  31  92 NW8       29.99R WCI  26
LE MARS        PTCLDY    36  34  93 CALM      30.04R
ORANGE CITY    CLEAR     36  32  87 N7        30.02R
SHELDON        CLEAR     32  32 100 NW7       30.01R WCI  26
SIOUX CITY     PTCLDY    40  34  79 CALM      30.04R
SPENCER        CLEAR     31  28  89 NW7       30.00R WCI  24
STORM LAKE     FAIR      34  32  93 NW13      30.02R WCI  25
$$

ABBREVIATIONS USED IN REMARKS
   TC - TEMPERATURE IN CELSIUS
  WCI - WIND CHILL INDEX
   HX - HEAT INDEX
  VSB - VISIBILITY




USA.gov is the U.S. government's official web portal to all federal, state and local government web resources and services.